Location: La Acebeda
(41.0871°N, 3.6245°W)
Time: 05:54:26
(UTC+00:00)

Daily predictions for brighter satellites

Satellite Brightness Start Highest point End
(mag) Time Altitude Azimuth Time Altitude Azimuth Time Altitude Azimuth
Cosmos 1697 Rocket 4.2 00:00:17 10° NNW 00:03:24 33° N 00:03:24 33° N
ATLAS 2AS CENTAUR R/B 3.2 00:09:45 54° N 00:09:45 54° N 00:15:12 10° NNE
Cosmos 1980 Rocket 3.6 00:20:42 10° NNW 00:24:19 34° NNE 00:24:19 34° NNE
Cosmos 2082 Rocket 3.5 00:59:24 36° NE 00:59:24 36° NE 01:02:46 10° NNE
CZ-4C R/B 3.7 01:22:06 27° NNE 01:22:06 27° NNE 01:24:36 10° NNE
ACS3 Solar Sail 2.3 01:13:52 10° NNE 01:18:33 54° NE 01:18:33 54° NE
SL-16 R/B 3.9 01:18:33 10° N 01:23:26 29° NE 01:24:53 26° E
ATLAS 3B R/B 3.3 01:23:41 10° NW 01:29:24 51° WNW 01:29:24 51° WNW
USA 267 4.1 01:29:04 10° ENE 01:34:01 38° ESE 01:34:01 38° ESE
Cosmos 2026 Rocket 4.5 01:30:14 10° N 01:35:02 54° NNW 01:35:02 54° NNW
Cosmos 909 Rocket 4.4 01:37:58 57° NNW 01:37:58 57° NNW 01:43:27 10° NNE
Cosmos 1092 Rocket 4.4 01:44:04 10° NNW 01:48:44 52° NNW 01:48:44 52° NNW
IDEFIX/ARIANE 42P 3.2 01:53:25 10° NNE 01:57:22 53° NNE 01:57:22 53° NNE
Cosmos 1980 Rocket 4.4 02:05:11 10° NW 02:06:02 14° NW 02:06:02 14° NW
Cosmos 1763 Rocket 4.1 02:13:17 50° E 02:13:17 50° E 02:17:55 10° NNE
COSMOS 2406 3.6 02:14:30 56° NNW 02:14:30 56° NNW 02:19:32 10° NNE
ADEOS II 4.1 02:10:52 10° NE 02:14:32 19° E 02:16:28 16° ESE
ALOS 4.0 02:15:26 10° NE 02:19:06 24° E 02:19:31 24° ESE
MSX 3.9 02:14:29 10° N 02:19:47 66° NW 02:19:47 66° NW
CZ-2D R/B 3.4 02:18:37 10° NE 02:23:18 32° E 02:24:32 28° ESE
ADEOS Rocket 3.5 02:19:04 10° NNE 02:26:46 84° ESE 02:28:49 55° S
Cosmos 1375 Rocket 4.4 02:31:37 74° SSW 02:32:16 86° ESE 02:38:50 10° NNE
Cosmos 1503 Rocket 4.1 02:31:11 10° NNW 02:36:26 73° ENE 02:37:00 66° ESE
Cosmos 2360 Rocket 2.8 02:31:44 10° NNW 02:37:19 54° ENE 02:42:51 10° SE
FENGYUN 3A 3.8 02:33:05 10° N 02:38:14 62° WNW 02:38:14 62° WNW
Cosmos 2333 Rocket 2.0 02:32:56 10° NNW 02:38:39 87° WSW 02:39:00 79° S
USA 281 3.1 02:38:17 64° SW 02:38:41 65° WSW 02:45:13 10° NNW
Cosmos 540 Rocket 3.4 02:41:19 83° E 02:41:19 83° E 02:46:26 10° NNE
Cosmos 2082 Rocket 3.9 02:41:13 19° WNW 02:41:42 19° NW 02:45:46 10° N
Cosmos 2221 3.5 02:43:58 38° NNW 02:43:58 38° NNW 02:46:40 10° N
NPP 4.1 02:46:23 10° N 02:51:27 46° WNW 02:51:27 46° WNW
Resurs 1-4 Rocket 2.3 02:46:49 10° NNE 02:52:06 65° ESE 02:53:19 50° SSE
Meteor 2-9 Rocket 3.9 02:46:49 10° NNW 02:52:07 71° W 02:52:07 71° W
Cosmos 2278 3.5 02:46:33 10° NNW 02:52:15 75° WSW 02:52:57 66° SSW
Cosmos 2322 Rocket 2.2 02:47:01 10° NNW 02:52:42 79° ENE 02:56:37 21° SSE
Cosmos 1833 4.2 02:53:58 60° S 02:55:03 79° ESE 03:00:45 10° NNE
Cosmos 1271 Rocket 4.4 03:01:02 22° NNW 03:01:02 22° NNW 03:02:32 10° N
ACS3 Solar Sail 3.4 02:57:40 10° NNW 03:01:40 19° WNW 03:02:06 19° WNW
Cosmos 1777 Rocket 4.4 02:56:36 10° NNW 03:00:46 45° WNW 03:00:46 45° WNW
Meteor 1-19 Rocket 4.2 03:04:31 53° W 03:04:58 55° WNW 03:10:25 10° N
Intercosmos 24 4.4 02:58:33 10° NNW 03:05:02 70° W 03:05:41 62° SW
H-2A R/B 2.5 03:01:08 10° NNE 03:06:14 59° E 03:08:28 33° SSE
SL-4 R/B 2.6 03:05:08 32° NNW 03:06:33 50° NNE 03:10:15 10° ESE
Cosmos 2219 Rocket 2.8 03:01:01 10° NNW 03:06:35 57° ENE 03:12:08 10° SE
CZ-3 Stage 3 3.5 03:05:04 38° SSW 03:07:12 45° SSE 03:25:51 10° ESE
SL-16 R/B 2.8 03:02:19 10° NW 03:06:39 39° W 03:06:39 39° W
USA 290 3.7 03:10:18 31° N 03:10:18 31° N 03:12:10 10° NNE
CZ-4C R/B 4.2 03:06:59 10° NW 03:09:12 13° NNW 03:11:43 10° N
Meteor 1-11 Rocket 3.7 03:03:22 10° NNW 03:09:15 79° W 03:11:37 38° S
Meteor 1-10 Rocket 4.3 03:11:32 50° WSW 03:12:37 59° WNW 03:18:20 10° N
NOAA 11 4.4 03:07:47 10° N 03:13:00 49° WNW 03:13:50 45° W
USA 267 3.5 03:11:53 10° NE 03:18:20 60° NW 03:21:21 32° W
Gbstr 26 Del rocket 3.3 03:19:26 17° NW 03:22:05 53° NNE 03:25:47 10° ESE
Cosmos 2266 Rocket 4.3 03:16:55 10° NNW 03:22:36 42° W 03:23:39 39° WSW
DMSP B5D2-2 4.1 03:26:09 42° SW 03:27:21 52° W 03:32:26 10° NNW
ISS -3.8 03:29:12 76° SE 03:29:12 76° SE 03:32:33 10° ENE
Cosmos 372 Rocket 4.3 03:26:02 10° NNW 03:31:10 65° ENE 03:36:14 10° SSE
JB-3 4.2 03:30:38 26° SSE 03:32:32 72° ENE 03:36:08 10° N
Cosmos 2333 4.1 03:27:40 10° NNW 03:33:17 65° WSW 03:38:56 10° S
BREEZE-M DEB (TANK) 2.9 03:31:26 30° WSW 03:35:05 89° SSE 03:38:30 10° ENE
Meteor 2-4 Rocket 3.5 03:34:19 30° SSW 03:37:02 77° W 03:42:24 10° N
IDEFIX/ARIANE 42P 4.5 03:34:51 10° NNW 03:37:23 14° WNW 03:38:03 13° WNW
Cosmos 1461 2.4 03:37:00 57° SW 03:37:42 86° WNW 03:41:27 10° NNE
Cosmos 1655 Rocket 3.9 03:32:05 10° NNW 03:38:16 67° W 03:43:31 14° S
Envisat 3.6 03:35:22 10° N 03:40:04 39° WNW 03:41:31 32° WSW
H-2A R/B 2.6 03:41:22 39° W 03:41:22 39° W 03:44:22 10° NNW
Cosmos 2084 Rocket 3.2 03:37:54 10° NW 03:42:06 72° WSW 03:46:20 10° SSE
Cosmos 1066 Rocket 4.1 03:38:36 19° S 03:42:31 82° E 03:47:53 10° NNE
Aureole 1 Rocket 3.2 03:38:16 10° NNW 03:42:41 74° WSW 03:48:15 10° SSE
Iridium 4 Rocket 4.1 03:42:31 29° W 03:43:00 30° W 03:47:20 10° NNW
NOSS 3-4 (A) 3.9 03:37:15 10° NW 03:44:15 86° ENE 03:52:27 10° SE
NOSS 3-4 (C) 4.0 03:37:48 10° NW 03:44:49 85° ENE 03:53:01 10° SE
AQUA 4.2 03:42:45 10° NNE 03:47:23 60° E 03:51:42 12° S
Cosmos 1842 Rocket 3.4 03:46:03 28° SSW 03:48:18 79° W 03:52:37 10° N
Meteor 1-27 Rocket 4.2 03:45:55 29° SW 03:48:35 46° WNW 03:54:17 10° N
Cosmos 1238 Rocket 3.6 03:50:21 22° NW 03:50:21 22° NW 03:52:03 10° NNW
BREEZE-M DEB (TANK) 3.3 03:43:25 10° WNW 03:52:45 75° SW 03:55:51 10° SE
USA 234 3.4 03:46:36 10° SE 03:53:07 80° NE 03:59:41 10° NW
BREEZE-M DEB (TANK) 3.4 03:49:52 10° NW 03:53:24 78° NNE 04:05:04 10° ESE
ADEOS II 2.3 03:49:17 10° N 03:54:21 52° WNW 03:57:17 24° SW
Cosmos 2297 Rocket 3.7 03:49:41 10° SSE 03:54:40 33° ESE 03:59:39 10° NE
ALOS 3.1 03:52:00 10° N 03:56:02 32° WNW 03:57:33 26° WSW
Cosmos 841 Rocket 3.4 03:58:30 22° SSW 04:01:52 69° WNW 04:07:02 10° NNE
SL-16 R/B 2.8 03:56:51 10° SSE 04:03:04 75° ENE 04:09:21 10° NNW
CZ-2D R/B 3.0 03:58:34 10° N 04:03:13 33° WNW 04:05:48 21° WSW
Sich 1 3.0 04:00:14 10° N 04:04:24 80° E 04:08:32 10° S
Okean 3 Rocket 3.7 04:00:59 10° N 04:05:27 79° E 04:09:55 10° S
COSMOS 2428 3.5 04:00:17 10° NNW 04:05:55 57° ENE 04:11:29 10° SE
Cosmos 1758 4.1 04:02:30 10° N 04:06:02 47° E 04:09:31 10° SSE
CZ-3 R/B 3.7 03:39:05 11° WSW 04:07:28 49° SSW 04:16:02 10° ESE
Cosmos 1898 Rocket 3.4 04:07:25 10° NNW 04:12:34 72° WSW 04:17:41 10° S
Cosmos 1805 Rocket 4.3 04:09:54 10° N 04:14:14 56° E 04:18:30 10° SSE
Cosmos 1937 Rocket 3.5 04:11:49 10° NNW 04:17:02 90° NNE 04:22:10 10° SSE
DELTA 2 R/B (1) 4.0 04:13:49 18° SW 04:17:42 51° SSE 04:23:03 10° E
USA 276 2.6 04:19:13 13° NNW 04:20:26 29° NNE 04:22:06 10° E
Cosmos 2360 Rocket 3.4 04:16:42 10° NW 04:20:48 21° W 04:24:35 11° SW
Cosmos 2333 Rocket 4.1 04:20:35 10° W 04:20:55 10° W 04:20:55 10° W
Meteor 1-18 Rocket 4.3 04:17:10 10° SSW 04:22:39 58° WNW 04:28:07 10° N
H-2A R/B 1.8 04:19:28 10° N 04:23:27 70° WNW 04:27:22 10° SSW
Meteor 2-10 Rocket 3.7 04:22:24 10° NNW 04:27:22 51° W 04:32:30 10° S
In-Cosmos 22 4.1 04:22:52 10° SSW 04:28:07 69° W 04:33:28 10° N
Cosmos 1553 Rocket 4.3 04:24:21 10° SSW 04:30:13 45° WNW 04:36:14 10° N
Resurs 1-4 Rocket 3.8 04:27:56 10° NNW 04:31:18 17° WNW 04:34:22 11° W
Cosmos 1340 Rocket 4.3 04:30:12 10° N 04:33:43 38° ENE 04:37:16 10° SSE
Cosmos 2322 Rocket 3.8 04:33:15 10° WNW 04:35:56 14° W 04:38:11 11° WSW
CZ-2C R/B 2.4 04:32:52 10° NNE 04:37:44 84° ESE 04:42:24 10° SSW
SL-14 R/B 4.0 04:38:33 10° SW 04:42:05 33° WNW 04:45:38 10° NNW
Cosmos 1709 Rocket 4.1 04:37:16 10° N 04:43:23 82° E 04:49:31 10° S
SL-4 R/B 2.9 04:40:36 10° WNW 04:43:45 24° SW 04:46:48 10° S
RESURS DK-1 4.0 04:41:12 10° N 04:44:56 38° ENE 04:48:39 10° SE
H-2A R/B 3.6 04:41:37 10° NNW 04:45:03 18° WNW 04:48:32 10° WSW
BREEZE-M DEB (TANK) 2.4 04:38:51 10° WNW 04:45:43 86° SSW 04:48:23 10° SE
Cosmos 1814 Rocket 4.4 04:42:30 10° S 04:47:32 66° ESE 04:52:37 10° NNE
SL-08 RB Rocket 3.9 04:44:13 10° N 04:48:30 49° WNW 04:52:46 10° SSW
Cosmos 2219 Rocket 3.4 04:46:04 10° NW 04:50:00 20° W 04:53:55 10° SW
Cosmos 2237 Rocket 3.2 04:45:10 10° NNW 04:50:46 54° ENE 04:56:17 10° SE
Cosmos 1939 Rocket 3.0 04:47:46 10° NNE 04:51:24 66° ESE 04:55:02 10° S
Cosmos 1980 4.4 04:47:01 10° NNW 04:52:37 61° ENE 04:58:11 10° SE
Cosmos 1408 Rocket 3.8 04:50:40 10° NNW 04:54:46 46° W 04:58:50 10° SSW
USA 307 4.0 04:53:25 10° S 04:55:38 24° SE 04:58:30 10° ENE
ARGOS 4.0 04:52:34 10° N 04:57:15 31° WNW 05:01:55 10° SW
USA 81 4.2 04:52:33 10° N 04:57:51 84° E 05:03:06 10° S
Cosmos 2227 Rocket 3.3 04:56:34 10° S 05:01:58 49° ESE 05:07:25 10° NE
Cosmos 2315 Rocket 4.1 04:56:46 10° SSW 05:03:05 71° W 05:09:29 10° N
Cosmos 1745 Rocket 4.2 04:57:28 10° NNW 05:03:23 51° W 05:09:16 10° SSW
